Regional Weather Roundup
Issued by NWS

Home | Current Version | Previous Version | Text Only | Print | Product List | Glossary On
Versions: 1 2 3 4 5 6 7 8 9 10 11 12 13 14 15 16 17 18 19 20 21 22 23 24 25 26 27 28 29 30 31 32 33 34 35 36 37 38 39 40 41 42 43 44 45 46 47 48 49 50
000
ASHW40 PHFO 262330
RWRHI

WEATHER ROUNDUP FOR HAWAII
NATIONAL WEATHER SERVICE HONOLULU HI
100 PM HST THU FEB 26 2015

THIS IS AN AUTOMATED REPORT THAT HAS NOT BEEN QUALITY CONTROLLED.

NOTE..."FAIR" INDICATES FEW OR NO CLOUDS BELOW 12,000 FEET WITH NO
SIGNIFICANT WEATHER AND/OR OBSTRUCTIONS TO VISIBILITY.

* - THESE SITES REPORT LIMITED FIELDS

HIZ001>004-270000-
KAUAI-NIIHAU-

CITY           SKY/WX    TMP DP  RH WIND       PRES   REMARKS
LIHUE APT      MOSUNNY   80  68  66 NE13      29.97F
PORT ALLEN*      N/A     84 N/A N/A W10         N/A
POIPU*         NOT AVBL
PRINCEVILLE*     N/A     73 N/A N/A MISG        N/A
KOKOLE POINT*  NOT AVBL
MOLOAA DAIRY*  NOT AVBL
WAIMEA HTS*    NOT AVBL
PUU OPAE*      NOT AVBL
PUU LUA*       NOT AVBL
MAKAHA RIDGE*  NOT AVBL
$$

HIZ005>011-270000-
OAHU-

CITY           SKY/WX    TMP DP  RH WIND       PRES   REMARKS
HONOLULU       CLOUDY    82  68  62 S8        29.94F
KALAELOA       PTSUNNY   80  67  64 S7        29.95F
KANEOHE MCB    PTSUNNY   77  70  79 NE6       29.91F
WHEELER FIELD  FAIR      79  68  69 N6        29.94F
BELLOWS*         N/A    N/A N/A N/A NE6         N/A
KAHUKU*          N/A    N/A N/A N/A E6          N/A
WHEELER*       NOT AVBL
WAIANAE HARBOR NOT AVBL
DILLINGHAM*      N/A     82  70  65 MISG        N/A
KAHUKU TRN*      N/A     68  61  77 SE3         N/A
KAWAILOA*        N/A     73  70  88 VRB3        N/A
KII*           NOT AVBL
MAKUA RANGE*     N/A     81  68  65 W3          N/A
OAHU FOREST NW NOT AVBL
SCHOFIELD BRK*   N/A     61  50  67 MISG        N/A
SCHOFIELD S*   NOT AVBL
WAIANAE VLY*   NOT AVBL
KUAOKALA*      NOT AVBL
HONOULIUULI*   NOT AVBL
MOKUOLOE IS*   NOT AVBL
PALEHUA*       NOT AVBL
WAIAWA PHB*    NOT AVBL
$$

HIZ012>013-270000-
MOLOKAI-

CITY           SKY/WX    TMP DP  RH WIND       PRES   REMARKS
MOLOKAI AIRPT  CLOUDY    78  68  71 CALM      29.96F
KALAUPAPA      NOT AVBL
MAKAPULAPAI*   NOT AVBL
MOLOKAI 1*     NOT AVBL
PUU ALII*        N/A     67  62  83 W2G10       N/A
$$

HIZ016-270000-
KAHOOLAWE-

CITY           SKY/WX    TMP DP  RH WIND       PRES   REMARKS
KAHOOLAWE*     NOT AVBL
HAKIOAWA*        N/A     78  68  72 MISG      30.37
HONOKANAIA*      N/A     83  68  60 E10G17    29.96
KANELOA*         N/A     79  72  78 MISG        N/A
KEALIALALO*    NOT AVBL
LUA MAKIKA*    NOT AVBL
$$

HIZ014>015-270000-
LANAI-

CITY           SKY/WX    TMP DP  RH WIND       PRES   REMARKS
LANAI CITY     FAIR      81  68  65 W9        30.00F
LANAI 1*       NOT AVBL
$$

HIZ017>028-270000-
MAUI-

CITY           SKY/WX    TMP DP  RH WIND       PRES   REMARKS
KAHULUI        MOSUNNY   82  66  58 N8        29.94F
KAPALUA-W MAUI MOSUNNY   81  68  65 CALM      29.96
HANA AIRPORT   PTSUNNY   79  70  73 E10       29.97F
HANA*            N/A     79 N/A N/A SE7G15      N/A
HALEAKALA SUMM   N/A     54  37  54 NE8G39      N/A
MAALAEA BAY*   NOT AVBL
HALEAKALA*     NOT AVBL
KAUPO GAP*     NOT AVBL
KULA 1*        NOT AVBL
$$

HIZ023>026-270000-
BIG ISLAND OF HAWAII COAST AND LOWER SLOPES-

CITY           SKY/WX    TMP DP  RH WIND       PRES   REMARKS
KAILUA KONA    SUNNY     82  66  58 NW8       29.93F
HILO           MOSUNNY   82  66  58 E18G25    29.95F
HONOKAA*       NOT AVBL
KAWAIHAE MWT*    N/A     81 N/A N/A W6          N/A
KAWAIHAE*        N/A     79 N/A N/A W7          N/A
SOUTH POINT*     N/A     81 N/A N/A E16G25      N/A
UPOLU AIRPORT*   N/A    N/A N/A N/A NE6         N/A
KAMUELA*       PTCLDY    79  57  47 W8        30.04F
HAKALAU*       NOT AVBL
KALOKO-HONOKO*   N/A     84  68  58 W12       29.92
PALI 2*          N/A    N/A N/A N/A SE12G22     N/A
KEALAKOMO*     NOT AVBL
KAUPULEHU*     NOT AVBL
KAPAPALA*      NOT AVBL
LOWER KAHUKU*    N/A     72  59  64 E3G17       N/A
PUHE CS*         N/A     82  59  44 W3          N/A
PUHO CS*         N/A     82  65  55 W3G9        N/A
PTA KEAMUKU*     N/A     72  55  56 CALM        N/A
WAIKOLOA*      NOT AVBL
$$

HIZ027>028-270000-
BIG ISLAND OF HAWAII INTERIOR AND SUMMMITS-

CITY           SKY/WX    TMP DP  RH WIND       PRES   REMARKS
BRADSHAW FIELD SUNNY     68  40  36 S13G20    30.24F
MK VISITOR CEN NOT AVBL
MAUNA KEA*       N/A     43  19  39 SW8         N/A
MAUNA LOA*       N/A     46  36  66 MISG        N/A
MAUNA LOA 1*   NOT AVBL
PTA KIPUKA*      N/A     66  50  55 NW7G15      N/A
PTA RANGE 17*    N/A     64  50  59 NW12G22     N/A
PTA WEST*        N/A     66  52  59 NW12G18     N/A
NENE CABIN*      N/A     55  45  67 E7G15       N/A
AHUMOA*        NOT AVBL
PTA PORTABLE*  NOT AVBL
PUU MALI*      NOT AVBL
$$

HIC003-270000-
NORTHWEST ISLANDS-

CITY           SKY/WX    TMP DP  RH WIND       PRES   REMARKS
MIDWAY ISLAND  CLOUDY    63  43  48 NE6       30.33F
MIDWAY NOS*    NOT AVBL
FRENCH FRIGATE NOT AVBL
$$

PHZ110>124-180-270000-
BUOY REPORTS

STATION/POSITION TIME  TEMP    WIND        PRES    WAVE   SWELL
                       AIR SEA DIR/SP/G            HT/PER HT/DIR
                 (UTC) (F)     (DEG/KT/KT) (MB)    (FT/S) (FT/D)
BUOY 51001       NOT AVBL
BUOY 51101       2300   71 72   70/ 12/ 14 1014.5F   7/ 9   7/290
BUOY 51100       2300   74 74  110/ 16/ 19 1015.6F
BUOY 51003       2300   77 79   50/  6/  8 1014.3F   7/12   7
BUOY 51004       2233   77 78  100/ 14/ 17 1013.5F   8/10   7/ 70
BARBERS PT BUOY  NOT AVBL
WAIMEA BAY BUOY  2300      78                N/A     5/10   2/280
KAILUA BAY BUOY  2300      77                N/A     6/11   3/ 80
LANAI BUOY       2300      78                N/A     3/13   2/230
BARBERS PT 2     2300      79                N/A     5/13   3/260
PAUWELA MAUI     2300      76                N/A    10/11   5/ 70
HILO             2300      78                N/A     7/11   3/ 70
KANEOHE BAY BUOY 2300      77                N/A     6/ 9   2/ 60
HANALEI KAUAI    NOT AVBL
KAHULUI HARBOR   2300   77 77   20/  6/  7 1013.5F
HONOLULU HARBOR  2300   76 77  220/  6/  8 1013.7F
KILO NALU        NOT AVBL
HILO HARBOR      NOT AVBL
MOKUOLOE         2300      76              1013.7F
NAWILIWILI       2300   76 77   40/  9/ 13 1014.1F
WHOTS BUOY       NOT AVBL
BUOY 51028       NOT AVBL
$$

......................KEY........................................
  SKY/WX - SKY CONDITIONS/PRESENT WEATHER
  TMP    - TEMPERATURE IN FAHRENHEIT
  DWPT   - DEWPOINT IN FAHRENHEIT
  RH     - RELATIVE HUMIDITY IN PERCENT
  WIND   - DIRECTION AND SPEED /MPH FOR ISLANDS...KTS FOR BUOYS/
  PRES   - MEAN SEA LEVEL PRESSURE IN INCHES OF HG
  VSB    - VISIBILITY IN MILES
  HX     - HEAT INDEX
  WCI    - WIND CHILL INDEX
  VRB    - VARIABLE WIND DIRECTION
  N/A    - NOT AVAILABLE


USA.gov is the U.S. government's official web portal to all federal, state and local government web resources and services.